IZ0HCD-13 Weather Reports


time (UTC)temp
C
wind
direction
speed
KPH
gust
KPH
rain 1hr
cm
rain 24hr
cm
rain mn
cm
humidity
%
barometer
mb
20260507064037 15 0.0 1.6 0.00 0.23 0.20 88 1014.5
20260507063017 15 0.0 1.6 0.00 0.23 0.20 89 1014.4
20260507062017 14 0.0 1.6 0.00 0.23 0.20 90 1014.4
20260507061017 14 0.0 3.2 0.00 0.23 0.20 90 1014.4
20260507060017 14 113 1.6 4.8 0.00 0.23 0.20 90 1014.4
20260507055017 13 113 1.6 4.8 0.00 0.23 0.20 91 1014.3
20260507054016 13 113 1.6 4.8 0.00 0.23 0.20 92 1014.2
20260507053037 13 113 3.2 6.4 0.00 0.25 0.20 92 1014.2
20260507052017 13 113 1.6 4.8 0.00 0.25 0.20 93 1014.2
20260507051017 13 90 1.6 4.8 0.00 0.25 0.20 92 1014.2
20260507050016 13 90 3.2 6.4 0.00 0.28 0.20 92 1014.1
20260507045017 13 90 1.6 4.8 0.00 0.28 0.20 92 1014.0
20260507044016 13 113 1.6 3.2 0.00 0.28 0.20 92 1014.0
20260507043016 13 113 1.6 3.2 0.00 0.28 0.20 92 1013.8
20260507042016 13 0.0 3.2 0.00 0.28 0.20 92 1013.7
20260507041036 13 113 1.6 4.8 0.00 0.28 0.20 92 1013.6
20260507040016 13 113 1.6 4.8 0.00 0.28 0.20 93 1013.6
20260507035016 13 113 1.6 4.8 0.00 0.28 0.20 93 1013.5
20260507034036 13 0.0 4.8 0.00 0.28 0.20 93 1013.4
20260507033036 13 113 1.6 6.4 0.00 0.28 0.20 92 1013.3
20260507032016 13 0.0 3.2 0.00 0.28 0.20 93 1013.4
20260507031016 13 0.0 3.2 0.00 0.28 0.20 93 1013.4
20260507030036 13 113 1.6 4.8 0.00 0.28 0.20 92 1013.4
20260507025016 13 0.0 3.2 0.00 0.28 0.20 92 1013.4
20260507024016 13 113 1.6 4.8 0.00 0.28 0.20 92 1013.4
20260507023022 13 113 3.2 6.4 0.03 0.28 0.20 92 1013.5
20260507022016 13 113 3.2 6.4 0.03 0.28 0.20 92 1013.5
20260507021016 13 113 3.2 6.4 0.03 0.28 0.20 92 1013.5
20260507020016 13 113 1.6 4.8 0.05 0.28 0.20 92 1013.5
20260507015036 13 113 1.6 4.8 0.08 0.28 0.20 92 1013.4
20260507014056 13 113 1.6 3.2 0.08 0.28 0.20 92 1013.4
20260507013016 13 113 3.2 8.0 0.08 0.25 0.18 92 1013.4
20260507012016 13 113 1.6 4.8 0.10 0.25 0.18 91 1013.4
20260507011016 13 113 1.6 4.8 0.10 0.25 0.18 91 1013.4
20260507010018 13 113 1.6 4.8 0.10 0.23 0.15 91 1013.4
20260507005018 14 113 3.2 6.4 0.08 0.20 0.13 91 1013.3
20260507004017 14 135 3.2 8.0 0.08 0.20 0.13 91 1013.4
20260507003017 14 0.0 1.6 0.05 0.18 0.10 91 1013.5
20260507002018 14 0.0 1.6 0.05 0.15 0.08 90 1013.5
20260507001017 14 0.0 1.6 0.05 0.15 0.08 90 1013.5
20260507000037 14 135 1.6 6.4 0.03 0.13 0.05 90 1013.4
20260506235017 15 135 1.6 4.8 0.05 0.13 0.05 90 1013.4
20260506234017 15 135 1.6 6.4 0.05 0.13 0.05 90 1013.4
20260506233017 15 135 3.2 8.0 0.05 0.13 0.05 90 1013.5
20260506232017 15 0.0 1.6 0.03 0.10 0.03 90 1013.5
20260506231017 15 0.0 1.6 0.03 0.10 0.03 89 1013.6
20260506230017 15 0.0 4.8 0.03 0.10 0.03 89 1013.7
20260506225017 15 0.0 3.2 0.00 0.08 0.00 88 1013.8
20260506224017 15 135 1.6 6.4 0.00 0.08 0.00 87 1013.9
20260506223017 15 0.0 3.2 0.00 0.08 0.00 87 1013.8
20260506222017 16 0.0 3.2 0.00 0.08 0.00 87 1013.7
20260506221017 16 135 1.6 11.3 0.00 0.08 0.00 87 1013.7
20260506220016 16 113 1.6 3.2 0.00 0.08 0.08 87 1013.6
20260506215017 16 113 1.6 6.4 0.00 0.08 0.08 87 1013.7
20260506214017 16 113 1.6 6.4 0.00 0.08 0.08 87 1013.7
20260506213017 16 135 3.2 8.0 0.00 0.08 0.08 87 1013.6
20260506212037 16 135 6.4 16.1 0.00 0.08 0.08 87 1013.7
20260506211037 16 135 4.8 16.1 0.00 0.08 0.08 87 1013.7
20260506210017 16 135 4.8 14.5 0.00 0.08 0.08 87 1013.7
20260506205016 16 135 3.2 8.0 0.00 0.08 0.08 87 1013.5
20260506204016 16 135 4.8 8.0 0.00 0.08 0.08 86 1013.5
20260506203016 16 135 1.6 6.4 0.00 0.08 0.08 86 1013.4
20260506202016 16 135 1.6 4.8 0.00 0.08 0.08 85 1013.4
20260506201016 16 135 3.2 9.7 0.00 0.08 0.08 85 1013.3
20260506200016 16 135 1.6 8.0 0.00 0.08 0.08 84 1013.1
20260506195016 16 158 1.6 6.4 0.00 0.08 0.08 84 1013.0
20260506194016 16 158 1.6 4.8 0.00 0.08 0.08 84 1012.9
20260506193016 16 158 3.2 9.7 0.00 0.08 0.08 84 1012.7
20260506192016 16 158 1.6 11.3 0.00 0.08 0.08 84 1012.6
20260506191036 16 158 1.6 8.0 0.00 0.08 0.08 84 1012.6
20260506190017 16 135 3.2 6.4 0.00 0.08 0.08 84 1012.5
20260506185016 17 158 1.6 6.4 0.00 0.08 0.08 83 1012.3
20260506184016 17 158 1.6 9.7 0.00 0.08 0.08 83 1012.2
20260506183016 17 0.0 3.2 0.00 0.08 0.08 83 1012.4
20260506182036 17 0.0 1.6 0.00 0.08 0.08 83 1012.3
20260506181036 17 0.0 4.8 0.00 0.08 0.08 82 1012.3
20260506180036 17 158 1.6 8.0 0.00 0.08 0.08 82 1012.2
20260506175016 17 158 3.2 11.3 0.00 0.08 0.08 82 1012.1
20260506174016 17 135 1.6 11.3 0.00 0.08 0.08 82 1012.3
20260506173016 17 180 4.8 11.3 0.00 0.08 0.08 81 1012.2
20260506172016 17 158 1.6 9.7 0.00 0.08 0.08 81 1012.1
20260506171017 17 180 3.2 16.1 0.00 0.08 0.08 81 1012.0
20260506170016 17 180 4.8 17.7 0.00 0.08 0.08 81 1012.1
20260506165036 17 158 3.2 17.7 0.00 0.08 0.08 81 1012.1
20260506164016 17 158 4.8 16.1 0.00 0.08 0.08 81 1012.1
20260506163016 18 158 3.2 11.3 0.00 0.08 0.08 81 1012.1
20260506162015 18 158 3.2 9.7 0.00 0.08 0.08 80 1012.1
20260506161016 18 180 4.8 19.3 0.00 0.08 0.08 79 1012.1
20260506160018 18 158 6.4 19.3 0.00 0.08 0.08 79 1012.0
20260506155018 18 158 4.8 19.3 0.00 0.08 0.08 80 1012.1
20260506154018 18 180 4.8 17.7 0.00 0.08 0.08 80 1012.1
20260506153018 18 180 4.8 16.1 0.00 0.08 0.08 81 1012.2
20260506152017 18 203 1.6 6.4 0.00 0.08 0.08 80 1012.1
20260506151018 18 0.0 4.8 0.00 0.08 0.08 80 1012.1
20260506150057 18 203 1.6 9.7 0.00 0.08 0.08 80 1012.1
20260506145017 17 203 3.2 8.0 0.00 0.08 0.08 79 1012.0
20260506144017 17 158 4.8 16.1 0.00 0.08 0.08 80 1012.0
20260506143017 18 158 8.0 17.7 0.00 0.08 0.08 75 1012.1
20260506142017 19 180 6.4 22.5 0.00 0.08 0.08 68 1012.0
20260506141017 20 180 8.0 19.3 0.00 0.08 0.08 65 1011.9
20260506140037 20 180 9.7 20.9 0.00 0.08 0.08 64 1012.0
20260506135017 20 158 6.4 17.7 0.00 0.08 0.08 63 1012.0
20260506134017 20 135 4.8 19.3 0.00 0.08 0.08 63 1012.1
20260506133017 20 180 8.0 22.5 0.00 0.08 0.08 62 1012.3
20260506132017 20 180 6.4 22.5 0.00 0.08 0.08 63 1012.6
20260506131017 20 158 6.4 17.7 0.00 0.08 0.08 63 1012.6
20260506130017 20 180 9.7 22.5 0.00 0.08 0.08 62 1012.7
20260506125037 20 135 6.4 25.7 0.00 0.08 0.08 63 1012.7
20260506124017 20 180 9.7 24.1 0.00 0.08 0.08 62 1012.7
20260506123057 20 180 4.8 16.1 0.00 0.08 0.08 64 1012.6
20260506122017 20 135 6.4 22.5 0.00 0.08 0.08 64 1012.5
20260506121017 20 135 3.2 14.5 0.00 0.08 0.08 65 1012.4
20260506120017 20 158 8.0 19.3 0.00 0.08 0.08 65 1012.6
20260506115017 20 180 4.8 14.5 0.00 0.08 0.08 65 1012.7
20260506114016 20 158 6.4 19.3 0.00 0.08 0.08 63 1012.9
20260506113037 20 180 8.0 22.5 0.00 0.08 0.08 62 1012.8
20260506112016 20 158 8.0 19.3 0.00 0.08 0.08 63 1012.8
20260506111016 20 158 9.7 24.1 0.00 0.08 0.08 61 1012.9
20260506110017 21 158 4.8 17.7 0.03 0.08 0.08 61 1012.9
20260506105016 20 180 8.0 19.3 0.03 0.08 0.08 62 1012.9
20260506104017 20 180 9.7 20.9 0.03 0.08 0.08 61 1013.0
20260506103016 19 135 4.8 16.1 0.03 0.08 0.08 65 1013.1
20260506102016 19 158 3.2 16.1 0.03 0.08 0.08 65 1013.2
20260506101016 18 158 8.0 24.1 0.03 0.08 0.08 65 1013.1
20260506100016 19 158 8.0 19.3 0.00 0.05 0.05 65 1013.0
20260506095016 18 158 8.0 19.3 0.00 0.05 0.05 68 1013.0
20260506094036 18 158 8.0 29.0 0.00 0.05 0.05 68 1013.1
20260506093016 18 158 3.2 11.3 0.00 0.05 0.05 72 1013.0
20260506092016 18 135 6.4 16.1 0.00 0.05 0.05 71 1013.0
20260506091016 17 135 3.2 11.3 0.00 0.05 0.05 74 1013.0
20260506090016 17 158 3.2 9.7 0.00 0.05 0.05 76 1013.0
20260506085016 17 158 3.2 9.7 0.00 0.05 0.05 77 1013.0
20260506084036 17 158 4.8 11.3 0.00 0.05 0.05 77 1012.9
20260506083016 17 113 3.2 9.7 0.00 0.05 0.05 79 1012.9
20260506082016 16 113 1.6 6.4 0.00 0.05 0.05 80 1012.9
20260506081016 16 113 3.2 11.3 0.00 0.05 0.05 80 1012.8
20260506073020 16 135 4.8 14.5 0.00 0.05 0.05 80 1012.9
20260506072016 15 135 9.7 17.7 0.00 0.05 0.05 82 1012.8
20260506071018 15 113 9.7 17.7 0.00 0.05 0.05 83 1012.8